Regional Weather Roundup
Issued by NWS

Home | Current Version | Previous Version | Graphics & Text | Print | Product List | Glossary On
Versions: 1 2 3 4 5 6 7 8 9 10 11 12 13 14 15 16 17 18 19 20 21 22 23 24 25 26 27 28 29 30 31 32 33 34 35 36 37 38 39 40 41 42 43 44 45 46 47 48 49 50
000
ASUS45 KABQ 050110
RWRNM
WEATHER ROUNDUP FOR NEW MEXICO
NATIONAL WEATHER SERVICE ALBUQUERQUE NM
600 PM MST WED MAR 04 2015

NOTE: "FAIR" MEANS FEW OR NO CLOUDS BELOW 12,000 FEET AGL WITH NO
       SIGNIFICANT WEATHER OR OBSTRUCTIONS TO VISION.

      THIS PRODUCT IS RELEASED AS TWO VERSIONS.  ONE VERSION NEAR
      THE TOP OF THE HOUR CONTAINING PRELIMINARY DATA FROM ALBUQUERQUE
      AND OTHER STATIONS.  A FINAL VERSION WITH ADDITIONAL DATA IS
      ISSUED ABOUT 10 MINUTES AFTER THE HOUR.

NMZ501-503-504-510>518-050200-
NORTHWEST PLATEAU/NORTHCENTRAL MOUNTAINS

CITY           SKY/WX    TMP DP  RH WIND       PRES   REMARKS
FARMINGTON     CLEAR     37  13  37 W18G31    30.07R WCI  27
LOS ALAMOS     CLEAR     33   8  35 SW14      29.99R WCI  24
SANTA FE       MOCLDY    29  19  66 SE21G28   30.01R WCI  16
TAOS           CLOUDY    34  14  44 NW18      29.97R WCI  23
ANGEL FIRE     LGT SNOW  17  13  85 S16G28    29.95R VSB 3/4 WCI   2

$$
NMZ402-403-502-505>509-050200-
WESTCENTRAL MOUNTAINS/SOUTHWEST MOUNTAINS

CITY           SKY/WX    TMP DP  RH WIND       PRES   REMARKS
GALLUP         PTCLDY    38  13  35 NW13      30.10R WCI  30
GRANTS         PTCLDY    38  11  31 NW15      30.06R WCI  30
SILVER CITY    PTCLDY    48  23  37 NW12G17   30.04R

$$
NMZ407-409-411-412-050200-
SOUTHERN DESERTS

CITY           SKY/WX    TMP DP  RH WIND       PRES   REMARKS
LORDSBURG      FAIR      54  23  30 W15       30.01R
DEMING         PTCLDY    55  24  30 W13       29.99R
LAS CRUCES     CLOUDY    53  32  44 N16       30.02R
HOLLOMAN AFB   CLOUDY    52  35  53 W2        29.99R
ALAMOGORDO     MOCLDY    52  32  46 NW6       30.01R
T OR C         MOCLDY    49  30  48 S8        29.99R

$$
NMZ519>523-050200-
CENTRAL VALLEYS/CENTRAL HIGHLANDS

CITY           SKY/WX    TMP DP  RH WIND       PRES   REMARKS
ALBUQUERQUE    PTCLDY    47  13  25 NW15      30.01R
DOUBLE EAGLE   PTCLDY    43  12  28 NW14      30.01R
MORIARTY ARPT  CLOUDY    26  20  78 SE10      30.07R WCI  17
CLINES CORNERS FOG       18  16  92 E16       30.01R VSB 1/4 WCI   3
BELEN          FAIR      47  11  23 NW13      30.01R
SOCORRO          N/A     51  13  21 NW8       30.00R

$$
NMZ524>526-539-540-050200-
SOUTHCENTRAL MOUNTAINS

CITY           SKY/WX    TMP DP  RH WIND       PRES   REMARKS
RUIDOSO        PTCLDY    21  19  93 SE7       30.08R WCI  13

$$
NMZ527>531-050200-
NORTHEAST HIGHLANDS/NORTHEAST PLAINS

CITY           SKY/WX    TMP DP  RH WIND       PRES   REMARKS
LAS VEGAS      LGT SNOW  16  13  88 SE7       30.08R VSB 1   WCI   6
RATON          LGT SNOW  16  12  84 NE6       30.11R FOG     WCI   7
CLAYTON        LGT SNOW  18  13  80 N13       30.20R WCI   5

$$
NMZ532>537-050200-
EASTCENTRAL PLAINS

CITY           SKY/WX    TMP DP  RH WIND       PRES   REMARKS
TUCUMCARI      CLOUDY    23  17  78 NE16      30.21R WCI  10
CANNON AFB     NOT AVBL
CLOVIS AIRPORT CLOUDY    21  18  86 NE15      30.20R WCI   8

$$
NMZ028-029-538-050200-
SOUTHEAST PLAINS

CITY           SKY/WX    TMP DP  RH WIND       PRES   REMARKS
ROSWELL        LGT SNOW  28  25  88 N10       30.21R FOG     WCI  19
ARTESIA        DRIZZLE   30  25  80 NE13      30.21R WCI  20
CARLSBAD       CLOUDY    33  26  75 N14       30.19R WCI  23
HOBBS          CLOUDY    25  25 100 N21G28    30.18R WCI  10


$$



USA.gov is the U.S. government's official web portal to all federal, state and local government web resources and services.